Weather History for Liberal, KS

Change the Weather History Date:

Tuesday, February 19, 2013

  Actual Average Record
Temperature  
Mean Temperature 34 °F -  
Max Temperature 53 °F 53 °F 83 °F (1986)
Min Temperature 15 °F 25 °F 2 °F (1993)
Degree Days  
Heating Degree Days 31    
Moisture  
Dew Point 15 °F    
Average Humidity 46    
Maximum Humidity 68    
Minimum Humidity 26    
Precipitation  
Precipitation 0.00 in - - ()
Sea Level Pressure  
Sea Level Pressure 30.13 in    
Wind  
Wind Speed 8 mph (SE)    
Max Wind Speed 25 mph    
Max Gust Speed 30 mph    
Visibility 10 miles    
Events      
Averages and records for this station are not official NWS values.
T = Trace of Precipitation, MM = Missing Value Source: NWS Daily Summary

Daily Weather History Graph

Daily Weather History Graph

Search for Another Location

Airport:

Trip Planner

Search our weather history database for the weather conditions in past years. The results will help you decide how hot, cold, wet, or windy it might be!

Date:

Astronomy

Feb. 19, 2013 Rise Set
Actual Time 7:27 AM CST 6:28 PM CST
Civil Twilight 7:01 AM CST 6:54 PM CST
Nautical Twilight 6:30 AM CST 7:25 PM CST
Astronomical Twilight 6:00 AM CST 7:55 PM CST
Moon 1:05 PM CST (2/19) 2:56 AM CST (2/19)
Length of Visible Light 11h 53m
Length of Day
11h 00m
Waxing Gibbous, 67% of the Moon is Illuminated
Feb 19
Waxing Gibbous
Feb 25
Full
Mar 4
Last Quarter
Mar 11
New
Mar 19
First Quarter

Hourly Weather History & Observations

Time (CST) Temp. Windchill Dew Point Humidity Pressure Visibility Wind Dir Wind Speed Gust Speed Precip Events Conditions
12:35 AM 21.2 °F 14.9 °F 8.6 °F 58% 30.16 in 10.0 mi NNW 4.6 mph - N/A   Clear
12:55 AM 21.2 °F - 8.6 °F 58% 30.16 in 10.0 mi Calm Calm - N/A   Clear
1:15 AM 21.2 °F - 6.8 °F 54% 30.16 in 10.0 mi Calm Calm - N/A   Clear
1:35 AM 21.2 °F 14.9 °F 8.6 °F 58% 30.16 in 10.0 mi NNW 4.6 mph - N/A   Clear
1:55 AM 21.2 °F 14.9 °F 6.8 °F 54% 30.17 in 10.0 mi NNW 4.6 mph - N/A   Clear
2:15 AM 19.4 °F 11.5 °F 6.8 °F 58% 30.17 in 10.0 mi NNW 5.8 mph - N/A   Clear
2:35 AM 19.4 °F 12.8 °F 6.8 °F 58% 30.17 in 10.0 mi NNW 4.6 mph - N/A   Clear
2:55 AM 21.2 °F - 8.6 °F 58% 30.17 in 10.0 mi Calm Calm - N/A   Clear
3:15 AM 21.2 °F 16.4 °F 6.8 °F 54% 30.16 in 10.0 mi NW 3.5 mph - N/A   Clear
3:35 AM 19.4 °F - 6.8 °F 58% 30.16 in 10.0 mi Calm Calm - N/A   Clear
3:55 AM 19.4 °F - 6.8 °F 58% 30.16 in 10.0 mi Calm Calm - N/A   Clear
4:15 AM 17.6 °F - 6.8 °F 63% 30.16 in 10.0 mi Calm Calm - N/A   Clear
4:35 AM 17.6 °F - 6.8 °F 63% 30.16 in 10.0 mi Calm Calm - N/A   Clear
4:55 AM 17.6 °F - 6.8 °F 63% 30.16 in 10.0 mi Calm Calm - N/A   Clear
6:15 AM 15.8 °F 10.2 °F 5.0 °F 62% 30.19 in 10.0 mi NNW 3.5 mph - N/A   Clear
6:35 AM 15.8 °F 8.6 °F 6.8 °F 68% 30.20 in 10.0 mi NNW 4.6 mph - N/A   Clear
6:55 AM 15.8 °F 8.6 °F 5.0 °F 62% 30.20 in 10.0 mi North 4.6 mph - N/A   Clear
7:15 AM 15.8 °F - 5.0 °F 62% 30.20 in 10.0 mi Calm Calm - N/A   Clear
7:35 AM 15.8 °F 8.6 °F 6.8 °F 68% 30.21 in 10.0 mi North 4.6 mph - N/A   Clear
7:55 AM 15.8 °F 8.6 °F 6.8 °F 68% 30.22 in 10.0 mi North 4.6 mph - N/A   Clear
8:15 AM 19.4 °F 14.3 °F 10.4 °F 68% 30.22 in 10.0 mi NNE 3.5 mph - N/A   Clear
8:35 AM 23.0 °F 17.0 °F 12.2 °F 63% 30.22 in 10.0 mi NE 4.6 mph - N/A   Clear
8:55 AM 26.6 °F 20.0 °F 15.8 °F 64% 30.22 in 10.0 mi NE 5.8 mph - N/A   Clear
9:15 AM 30.2 °F 24.3 °F 17.6 °F 60% 30.23 in 10.0 mi ENE 5.8 mph - N/A   Clear
9:35 AM 33.8 °F 28.6 °F 17.6 °F 52% 30.23 in 10.0 mi East 5.8 mph - N/A   Clear
9:55 AM 35.6 °F 29.9 °F 17.6 °F 48% 30.23 in 10.0 mi East 6.9 mph - N/A   Clear
10:15 AM 37.4 °F 30.8 °F 19.4 °F 48% 30.22 in 10.0 mi East 9.2 mph - N/A   Clear
10:35 AM 39.2 °F 32.5 °F 19.4 °F 45% 30.22 in 10.0 mi SE 10.4 mph - N/A   Clear
10:55 AM 39.2 °F 32.0 °F 19.4 °F 45% 30.22 in 10.0 mi SE 11.5 mph - N/A   Clear
11:15 AM 42.8 °F 36.6 °F 19.4 °F 39% 30.22 in 10.0 mi SSE 11.5 mph 16.1 mph N/A   Clear
11:35 AM 44.6 °F 38.1 °F 19.4 °F 37% 30.21 in 10.0 mi SSE 13.8 mph - N/A   Clear
12:15 PM 46.4 °F 40.1 °F 21.2 °F 37% 30.19 in 10.0 mi South 15.0 mph 25.3 mph N/A   Clear
12:35 PM 48.2 °F - 21.2 °F 34% 30.17 in 10.0 mi SSE 17.3 mph 20.7 mph N/A   Clear
12:55 PM 50.0 °F - 21.2 °F 32% 30.16 in 10.0 mi South 18.4 mph 24.2 mph N/A   Clear
1:15 PM 50.0 °F - 21.2 °F 32% 30.15 in 10.0 mi South 17.3 mph 25.3 mph N/A   Clear
1:35 PM 51.8 °F - 21.2 °F 30% 30.13 in 10.0 mi South 20.7 mph - N/A   Clear
1:55 PM 53.6 °F - 21.2 °F 28% 30.11 in 10.0 mi South 17.3 mph 28.8 mph N/A   Clear
2:15 PM 53.6 °F - 19.4 °F 26% 30.10 in 10.0 mi SSE 15.0 mph 27.6 mph N/A   Clear
2:35 PM 51.8 °F - 19.4 °F 28% 30.08 in 10.0 mi SSE 20.7 mph 28.8 mph N/A   Clear
2:55 PM 53.6 °F - 21.2 °F 28% 30.07 in 10.0 mi South 17.3 mph 24.2 mph N/A   Clear
3:15 PM 53.6 °F - 19.4 °F 26% 30.06 in 10.0 mi South 15.0 mph 25.3 mph N/A   Clear
3:35 PM 53.6 °F - 19.4 °F 26% 30.04 in 10.0 mi South 25.3 mph 28.8 mph N/A   Clear
3:55 PM 53.6 °F - 19.4 °F 26% 30.04 in 10.0 mi SSE 21.9 mph 27.6 mph N/A   Clear
4:15 PM 53.6 °F - 19.4 °F 26% 30.04 in 10.0 mi South 18.4 mph 29.9 mph N/A   Clear
4:35 PM 53.6 °F - 19.4 °F 26% 30.03 in 10.0 mi SSE 19.6 mph 26.5 mph N/A   Clear
4:55 PM 53.6 °F - 19.4 °F 26% 30.03 in 10.0 mi SSE 20.7 mph 27.6 mph N/A   Clear
5:15 PM 51.8 °F - 19.4 °F 28% 30.02 in 10.0 mi SSE 21.9 mph 26.5 mph N/A   Clear
6:35 PM 46.4 °F 40.1 °F 17.6 °F 32% 30.03 in 10.0 mi SSE 15.0 mph - N/A   Clear
6:55 PM 44.6 °F 38.1 °F 17.6 °F 34% 30.04 in 10.0 mi SSE 13.8 mph 19.6 mph N/A   Clear
7:15 PM 44.6 °F 37.2 °F 17.6 °F 34% 30.05 in 10.0 mi SSE 17.3 mph - N/A   Clear
7:35 PM 44.6 °F 37.8 °F 17.6 °F 34% 30.05 in 10.0 mi SSE 15.0 mph 20.7 mph N/A   Clear
7:55 PM 42.8 °F 35.1 °F 17.6 °F 36% 30.06 in 10.0 mi SSE 16.1 mph - N/A   Clear
8:15 PM 42.8 °F 34.8 °F 19.4 °F 39% 30.06 in 10.0 mi SSE 17.3 mph 21.9 mph N/A   Clear
8:35 PM 42.8 °F 35.1 °F 17.6 °F 36% 30.06 in 10.0 mi SE 16.1 mph - N/A   Clear
8:55 PM 42.8 °F 35.1 °F 17.6 °F 36% 30.06 in 10.0 mi SSE 16.1 mph 21.9 mph N/A   Clear
9:15 PM 42.8 °F 35.4 °F 19.4 °F 39% 30.06 in 10.0 mi SSE 15.0 mph - N/A   Clear
9:35 PM 41.0 °F 32.2 °F 19.4 °F 42% 30.05 in 10.0 mi SSE 18.4 mph - N/A   Clear
9:55 PM 39.2 °F 30.2 °F 17.6 °F 42% 30.05 in 10.0 mi SE 17.3 mph - N/A   Clear
10:15 PM 39.2 °F 29.8 °F 19.4 °F 45% 30.05 in 10.0 mi SE 18.4 mph 23.0 mph N/A   Clear
10:35 PM 37.4 °F 27.8 °F 19.4 °F 48% 30.05 in 10.0 mi SE 17.3 mph - N/A   Clear
10:55 PM 39.2 °F 29.8 °F 19.4 °F 45% 30.04 in 10.0 mi SE 18.4 mph - N/A   Clear
11:15 PM 37.4 °F 27.8 °F 19.4 °F 48% 30.04 in 10.0 mi SE 17.3 mph 24.2 mph N/A   Clear
11:35 PM 37.4 °F 28.2 °F 19.4 °F 48% 30.03 in 10.0 mi SE 16.1 mph - N/A   Clear